Time,TemperatureF,DewpointF,PressureIn,WindDirection,WindDirectionDegrees,WindSpeedMPH,WindSpeedGustMPH,Humidity,HourlyPrecipIn,Conditions,Clouds,dailyrainin,SoftwareType,DateUTC
2013-01-07 00:00:00,37.0,37.0,29.91,ESE,122,11.0,26.0,99,0.05,,,0.40,weatherlink.com 1.10,2013-01-07 08:00:00,
2013-01-07 00:15:00,37.1,37.0,29.90,SE,128,12.0,25.0,99,0.05,,,0.01,weatherlink.com 1.10,2013-01-07 08:15:00,
2013-01-07 00:30:00,37.1,37.0,29.90,East,101,14.0,29.0,99,0.05,,,0.03,weatherlink.com 1.10,2013-01-07 08:30:00,
2013-01-07 00:45:00,37.1,37.0,29.89,ESE,115,9.0,21.0,99,0.07,,,0.05,weatherlink.com 1.10,2013-01-07 08:45:00,
2013-01-07 01:00:00,37.1,37.0,29.89,ESE,118,9.0,24.0,99,0.07,,,0.07,weatherlink.com 1.10,2013-01-07 09:00:00,
2013-01-07 01:15:00,37.2,37.0,29.89,East,93,11.0,23.0,99,0.08,,,0.09,weatherlink.com 1.10,2013-01-07 09:15:00,
2013-01-07 01:30:00,37.4,37.0,29.89,ESE,116,12.0,27.0,99,0.08,,,0.11,weatherlink.com 1.10,2013-01-07 09:30:00,
2013-01-07 01:45:00,37.4,37.0,29.88,ESE,109,11.0,26.0,99,0.09,,,0.14,weatherlink.com 1.10,2013-01-07 09:45:00,
2013-01-07 02:00:00,37.4,37.0,29.88,ESE,104,7.0,26.0,99,0.10,,,0.17,weatherlink.com 1.10,2013-01-07 10:00:00,
2013-01-07 02:30:00,37.4,37.0,29.87,East,97,16.0,26.0,99,0.11,,,0.22,weatherlink.com 1.10,2013-01-07 10:30:00,
2013-01-07 02:45:00,37.4,37.0,29.86,East,92,17.0,20.0,99,0.11,,,0.25,weatherlink.com 1.10,2013-01-07 10:45:00,
2013-01-07 03:00:00,37.5,37.0,29.86,SE,132,10.0,23.0,99,0.10,,,0.27,weatherlink.com 1.10,2013-01-07 11:00:00,
2013-01-07 03:15:00,37.6,37.0,29.85,ESE,113,19.0,27.0,99,0.08,,,0.28,weatherlink.com 1.10,2013-01-07 11:15:00,
2013-01-07 03:31:00,37.5,37.0,29.84,ESE,120,9.0,26.0,99,0.07,,,0.29,weatherlink.com 1.10,2013-01-07 11:31:00,
2013-01-07 03:46:00,37.6,37.0,29.84,East,94,11.0,23.0,99,0.05,,,0.30,weatherlink.com 1.10,2013-01-07 11:46:00,
2013-01-07 04:01:00,37.7,38.0,29.82,ESE,119,14.0,26.0,99,0.04,,,0.31,weatherlink.com 1.10,2013-01-07 12:01:00,
2013-01-07 04:16:00,37.8,38.0,29.81,East,89,19.0,23.0,99,0.04,,,0.32,weatherlink.com 1.10,2013-01-07 12:16:00,
2013-01-07 04:31:00,37.8,38.0,29.80,ESE,118,12.0,22.0,99,0.04,,,0.33,weatherlink.com 1.10,2013-01-07 12:31:00,
2013-01-07 04:46:00,37.9,38.0,29.79,ESE,121,10.0,28.0,99,0.04,,,0.34,weatherlink.com 1.10,2013-01-07 12:46:00,
2013-01-07 05:01:00,38.1,38.0,29.78,SE,126,8.0,21.0,99,0.04,,,0.35,weatherlink.com 1.10,2013-01-07 13:01:00,
2013-01-07 05:16:00,38.3,38.0,29.77,SE,134,5.0,24.0,99,0.04,,,0.36,weatherlink.com 1.10,2013-01-07 13:16:00,
2013-01-07 05:31:00,38.5,38.0,29.77,East,95,6.0,18.0,99,0.03,,,0.36,weatherlink.com 1.10,2013-01-07 13:31:00,
2013-01-07 05:46:00,38.8,39.0,29.77,SE,129,10.0,28.0,99,0.03,,,0.37,weatherlink.com 1.10,2013-01-07 13:46:00,
2013-01-07 06:01:00,38.9,39.0,29.78,ESE,116,9.0,25.0,99,0.03,,,0.38,weatherlink.com 1.10,2013-01-07 14:01:00,
2013-01-07 06:16:00,39.0,39.0,29.78,ESE,113,8.0,21.0,99,0.02,,,0.38,weatherlink.com 1.10,2013-01-07 14:16:00,
2013-01-07 06:31:00,39.1,39.0,29.78,SE,139,13.0,25.0,99,0.02,,,0.38,weatherlink.com 1.10,2013-01-07 14:31:00,
2013-01-07 06:46:00,39.3,39.0,29.78,ESE,117,14.0,17.0,99,0.02,,,0.39,weatherlink.com 1.10,2013-01-07 14:46:00,
2013-01-07 07:01:00,39.5,39.0,29.77,East,79,13.0,23.0,99,0.01,,,0.39,weatherlink.com 1.10,2013-01-07 15:01:00,
2013-01-07 07:16:00,39.8,40.0,29.77,East,90,9.0,23.0,99,0.01,,,0.39,weatherlink.com 1.10,2013-01-07 15:16:00,
2013-01-07 07:31:00,39.9,40.0,29.77,ESE,105,14.0,24.0,99,0.01,,,0.39,weatherlink.com 1.10,2013-01-07 15:31:00,
2013-01-07 07:46:00,40.0,40.0,29.78,ESE,119,9.0,21.0,99,0.00,,,0.39,weatherlink.com 1.10,2013-01-07 15:46:00,
2013-01-07 08:01:00,40.1,40.0,29.78,ESE,109,9.0,22.0,99,0.00,,,0.39,weatherlink.com 1.10,2013-01-07 16:01:00,
2013-01-07 08:16:00,40.4,40.0,29.79,East,94,14.0,17.0,99,0.01,,,0.40,weatherlink.com 1.10,2013-01-07 16:16:00,
2013-01-07 08:31:00,40.4,40.0,29.79,East,90,8.0,16.0,99,0.01,,,0.40,weatherlink.com 1.10,2013-01-07 16:31:00,
2013-01-07 08:46:00,40.6,40.0,29.79,ESE,111,9.0,17.0,99,0.02,,,0.41,weatherlink.com 1.10,2013-01-07 16:46:00,
2013-01-07 09:01:00,41.1,41.0,29.78,ESE,110,8.0,15.0,99,0.02,,,0.41,weatherlink.com 1.10,2013-01-07 17:01:00,
2013-01-07 09:16:00,41.3,41.0,29.79,ESE,118,7.0,18.0,100,0.01,,,0.41,weatherlink.com 1.10,2013-01-07 17:16:00,
2013-01-07 09:31:00,41.5,42.0,29.80,ESE,119,9.0,12.0,100,0.01,,,0.41,weatherlink.com 1.10,2013-01-07 17:31:00,
2013-01-07 09:46:00,41.7,42.0,29.81,SE,135,11.0,12.0,99,0.00,,,0.41,weatherlink.com 1.10,2013-01-07 17:46:00,
2013-01-07 10:01:00,42.2,42.0,29.82,SE,128,6.0,17.0,100,0.00,,,0.41,weatherlink.com 1.10,2013-01-07 18:01:00,
2013-01-07 10:16:00,42.5,43.0,29.83,SSE,168,7.0,20.0,100,0.00,,,0.41,weatherlink.com 1.10,2013-01-07 18:16:00,
2013-01-07 10:31:00,43.0,43.0,29.82,SSE,162,8.0,19.0,100,0.00,,,0.41,weatherlink.com 1.10,2013-01-07 18:31:00,
2013-01-07 10:46:00,43.2,43.0,29.82,SE,126,6.0,14.0,100,0.00,,,0.41,weatherlink.com 1.10,2013-01-07 18:46:00,
2013-01-07 11:01:00,43.6,44.0,29.82,ESE,108,8.0,22.0,100,0.00,,,0.41,weatherlink.com 1.10,2013-01-07 19:01:00,
2013-01-07 11:16:00,44.1,44.0,29.83,WSW,255,9.0,20.0,100,0.00,,,0.41,weatherlink.com 1.10,2013-01-07 19:16:00,
2013-01-07 11:31:00,44.2,44.0,29.83,SSE,162,8.0,32.0,100,0.00,,,0.41,weatherlink.com 1.10,2013-01-07 19:31:00,
2013-01-07 11:46:00,44.3,44.0,29.84,South,190,10.0,25.0,100,0.00,,,0.41,weatherlink.com 1.10,2013-01-07 19:46:00,
2013-01-07 12:01:00,44.4,44.0,29.84,SW,219,9.0,31.0,100,0.00,,,0.41,weatherlink.com 1.10,2013-01-07 20:01:00,
2013-01-07 12:16:00,44.5,45.0,29.85,SSW,206,10.0,31.0,100,0.00,,,0.41,weatherlink.com 1.10,2013-01-07 20:16:00,
2013-01-07 12:31:00,44.6,45.0,29.86,SW,236,21.0,27.0,100,0.00,,,0.41,weatherlink.com 1.10,2013-01-07 20:31:00,
2013-01-07 12:46:00,44.8,45.0,29.86,SSW,199,11.0,22.0,100,0.00,,,0.41,weatherlink.com 1.10,2013-01-07 20:46:00,
2013-01-07 13:01:00,44.7,45.0,29.86,SSW,194,6.0,27.0,100,0.00,,,0.41,weatherlink.com 1.10,2013-01-07 21:01:00,
2013-01-07 13:16:00,44.9,45.0,29.88,South,177,12.0,24.0,99,0.00,,,0.41,weatherlink.com 1.10,2013-01-07 21:16:00,
2013-01-07 13:31:00,45.0,45.0,29.88,SW,235,20.0,30.0,98,0.00,,,0.41,weatherlink.com 1.10,2013-01-07 21:31:00,
2013-01-07 13:46:00,45.1,44.0,29.88,SSW,209,5.0,21.0,97,0.00,,,0.41,weatherlink.com 1.10,2013-01-07 21:46:00,
2013-01-07 14:01:00,45.2,44.0,29.89,WSW,238,9.0,22.0,97,0.00,,,0.41,weatherlink.com 1.10,2013-01-07 22:01:00,
2013-01-07 14:17:00,45.2,44.0,29.89,SSE,160,6.0,23.0,96,0.00,,,0.41,weatherlink.com 1.10,2013-01-07 22:17:00,
2013-01-07 14:31:00,45.2,44.0,29.90,WSW,248,8.0,33.0,95,0.00,,,0.41,weatherlink.com 1.10,2013-01-07 22:31:00,
2013-01-07 14:46:00,45.0,43.0,29.90,WSW,257,14.0,23.0,94,0.00,,,0.41,weatherlink.com 1.10,2013-01-07 22:46:00,
2013-01-07 15:01:00,45.0,43.0,29.91,West,264,8.0,24.0,93,0.00,,,0.41,weatherlink.com 1.10,2013-01-07 23:01:00,
2013-01-07 15:17:00,45.0,43.0,29.92,West,269,5.0,24.0,92,0.00,,,0.41,weatherlink.com 1.10,2013-01-07 23:17:00,
2013-01-07 15:32:00,44.8,43.0,29.94,West,278,9.0,23.0,92,0.00,,,0.41,weatherlink.com 1.10,2013-01-07 23:32:00,
2013-01-07 15:47:00,44.5,42.0,29.94,West,277,8.0,22.0,92,0.00,,,0.41,weatherlink.com 1.10,2013-01-07 23:47:00,
2013-01-07 16:02:00,44.4,42.0,29.95,West,269,10.0,17.0,91,0.00,,,0.41,weatherlink.com 1.10,2013-01-08 00:02:00,
2013-01-07 16:17:00,44.2,42.0,29.96,WNW,297,5.0,19.0,90,0.00,,,0.41,weatherlink.com 1.10,2013-01-08 00:17:00,
2013-01-07 16:32:00,43.8,41.0,29.97,SW,219,5.0,20.0,90,0.00,,,0.41,weatherlink.com 1.10,2013-01-08 00:32:00,
2013-01-07 16:47:00,43.4,41.0,29.97,West,276,7.0,14.0,91,0.00,,,0.41,weatherlink.com 1.10,2013-01-08 00:47:00,
2013-01-07 17:02:00,43.0,41.0,29.97,SW,215,8.0,13.0,91,0.00,,,0.41,weatherlink.com 1.10,2013-01-08 01:02:00,
2013-01-07 17:17:00,42.7,40.0,29.99,SSW,213,5.0,11.0,91,0.00,,,0.41,weatherlink.com 1.10,2013-01-08 01:17:00,
2013-01-07 17:32:00,42.4,40.0,29.99,NW,317,4.0,11.0,92,0.00,,,0.41,weatherlink.com 1.10,2013-01-08 01:32:00,
2013-01-07 17:47:00,42.2,40.0,30.00,West,269,4.0,10.0,92,0.00,,,0.41,weatherlink.com 1.10,2013-01-08 01:47:00,
2013-01-07 18:02:00,41.7,40.0,30.00,North,349,3.0,7.0,93,0.00,,,0.41,weatherlink.com 1.10,2013-01-08 02:02:00,
2013-01-07 18:17:00,41.4,40.0,30.01,NNW,335,4.0,6.0,93,0.00,,,0.41,weatherlink.com 1.10,2013-01-08 02:17:00,
2013-01-07 18:32:00,41.0,39.0,30.03,North,5,5.0,7.0,94,0.00,,,0.41,weatherlink.com 1.10,2013-01-08 02:32:00,
2013-01-07 18:47:00,40.9,39.0,30.03,North,5,2.0,8.0,94,0.00,,,0.41,weatherlink.com 1.10,2013-01-08 02:47:00,
2013-01-07 19:02:00,40.5,39.0,30.03,ESE,103,2.0,6.0,94,0.00,,,0.41,weatherlink.com 1.10,2013-01-08 03:02:00,
2013-01-07 19:17:00,40.6,39.0,30.03,NNW,333,2.0,7.0,93,0.00,,,0.41,weatherlink.com 1.10,2013-01-08 03:17:00,
2013-01-07 19:32:00,40.8,39.0,30.04,WNW,294,2.0,6.0,92,0.00,,,0.41,weatherlink.com 1.10,2013-01-08 03:32:00,
2013-01-07 19:47:00,40.0,38.0,30.04,NNE,30,3.0,4.0,93,0.00,,,0.41,weatherlink.com 1.10,2013-01-08 03:47:00,
2013-01-07 20:02:00,39.7,38.0,30.05,North,349,3.0,5.0,94,0.00,,,0.41,weatherlink.com 1.10,2013-01-08 04:02:00,
2013-01-07 20:17:00,39.3,38.0,30.06,North,355,2.0,3.0,94,0.00,,,0.41,weatherlink.com 1.10,2013-01-08 04:17:00,
2013-01-07 20:32:00,39.1,38.0,30.06,NNE,31,2.0,5.0,95,0.00,,,0.41,weatherlink.com 1.10,2013-01-08 04:32:00,
2013-01-07 20:47:00,38.8,38.0,30.07,NNE,31,2.0,3.0,95,0.00,,,0.41,weatherlink.com 1.10,2013-01-08 04:47:00,
2013-01-07 21:17:00,38.6,38.0,30.08,NNE,31,3.0,3.0,96,0.00,,,0.41,weatherlink.com 1.10,2013-01-08 05:17:00,
2013-01-07 21:32:00,38.4,37.0,30.09,NNE,31,2.0,4.0,96,0.00,,,0.41,weatherlink.com 1.10,2013-01-08 05:32:00,
2013-01-07 21:47:00,38.4,38.0,30.09,North,355,0.0,7.0,97,0.00,,,0.41,weatherlink.com 1.10,2013-01-08 05:47:00,
2013-01-07 22:02:00,39.1,38.0,30.09,NNW,329,0.0,4.0,95,0.00,,,0.41,weatherlink.com 1.10,2013-01-08 06:02:00,
2013-01-07 22:17:00,39.7,38.0,30.10,NNE,21,0.0,5.0,93,0.00,,,0.41,weatherlink.com 1.10,2013-01-08 06:17:00,
2013-01-07 22:32:00,39.7,38.0,30.10,NNE,22,0.0,5.0,93,0.00,,,0.41,weatherlink.com 1.10,2013-01-08 06:32:00,
2013-01-07 23:02:00,41.0,38.0,30.10,NNW,337,2.0,7.0,90,0.00,,,0.41,weatherlink.com 1.10,2013-01-08 07:02:00,
2013-01-07 23:17:00,40.1,38.0,30.10,NNE,29,3.0,4.0,92,0.00,,,0.41,weatherlink.com 1.10,2013-01-08 07:17:00,
2013-01-07 23:32:00,40.0,38.0,30.10,ENE,71,3.0,4.0,92,0.00,,,0.41,weatherlink.com 1.10,2013-01-08 07:32:00,
2013-01-07 23:47:00,40.5,38.0,30.11,East,90,3.0,6.0,91,0.00,,,0.41,weatherlink.com 1.10,2013-01-08 07:47:00,